Regional Weather Roundup
Issued by NWS Grand Forks, ND

Home | Current Version | Previous Version | Graphics & Text | Print | Product List | Glossary On
Versions: 1 2 3 4 5 6 7 8 9 10 11 12 13 14 15 16 17 18 19 20 21 22 23 24 25 26 27 28 29 30 31 32 33 34 35 36 37 38 39 40 41 42 43 44 45 46 47 48 49 50
384
ASUS43 KFGF 240831
RWRFGF
PRAIRIE TO PINES  WEATHER ROUNDUP
NATIONAL WEATHER SERVICE EASTERN NORTH DAKOTA/GRAND FORKS ND
300 AM CDT MON APR 24 2017

 **SATELLITE DATA USED TO AUGMENT SKY COVER AT AUTOMATED STATIONS**
 *****  WEATHER ACROSS EASTERN NORTH DAKOTA  *****

CITY           SKY/WX    TMP DP  RH WIND       PRES   REMARKS
GRAND FORKS    CLOUDY    35  32  88 NE18      29.84F WCI  24
GRAND FRKS AFB CLOUDY    32  30  93 E15       29.83F WCI  22
DEVILS LAKE    CLOUDY    30  27  86 E23G29    29.78F WCI  17
FARGO          FAIR      38  31  76 E16       29.75F
WAHPETON ARPT  FAIR      37  32  81 E10       29.71F
$$

 ***** WEATHER ACROSS CENTRAL AND WESTERN NORTH DAKOTA  *****

CITY           SKY/WX    TMP DP  RH WIND       PRES   REMARKS
BISMARCK       CLOUDY    34  31  88 E12       29.77R
MINOT          CLOUDY    31  26  82 E15       29.80F WCI  20
JAMESTOWN      CLOUDY    33  30  88 NE17G24   29.73F WCI  22
MINOT AFB      CLOUDY    30  24  77 E12       29.81S WCI  21
GARRISON         N/A     29  27  92 E12       29.80R WCI  19
WILLISTON      MIX PCPN  31  28  89 E8        29.78F FOG     WCI  23
DICKINSON      FOG       29  28  96 NE15      29.69F VSB 3/4 WCI  18
HETTINGER      CLOUDY    31  30  96 NE18      29.63F WCI  19
$$

 *****  OTHER AIRPORT OBSERVATIONS IN OUR AREA  *****

CITY           SKY/WX    TMP DP  RH WIND       PRES   REMARKS
WALHALLA       NOT AVBL
GRAFTON AIRPOR CLOUDY    34  28  80 NE18      29.88F WCI  23
VALLEY CITY AR CLOUDY    32  32 100 E14G20    29.75F WCI  22
CANDO          NOT AVBL
CAVALIER APRT  CLOUDY    34  21  60 NE8       29.91F
GWINNER        SUNNY     37  36  93 MISG      29.68F
ROLLA          CLOUDY    30  16  55 E14       29.86S WCI  20
 ***** THE ABOVE OBSERVATIONS ARE NON NWS ARE NOT QUALITY
       CONTROLLED AND MAY MIS-REPORT RAIN FOR SNOW...
$$

  *****  WEATHER ACROSS NORTHERN MINNESOTA  *****

CITY           SKY/WX    TMP DP  RH WIND       PRES   REMARKS
FLAG ISLAND    CLOUDY    34  16  47 E8        29.98F
WARROAD        CLOUDY    34  25  69 E16       29.98S WCI  23
ROSEAU         CLOUDY    34  27  75 E13G18    29.94F WCI  25
HALLOCK        CLOUDY    36  23  60 E13G21    29.91F
THF RVR FALLS  MIX PCPN  32  30  92 E20       29.87F WCI  20
BAUDETTE       LGT SNOW  31  28  89 E13       29.97F VSB 3/4 WCI  21
WASKISH        DRIZZLE   32  30  93 E12       29.92F WCI  23
CROOKSTON      MOCLDY    36  30  80 E17       29.82F
STEPHEN NDAWN    N/A     34  28  80 E14         N/A  WCI  24
GREENBUSH NDAW   N/A     30  28  93 E14         N/A  WCI  20
$$
  *****  WEATHER ACROSS CENTRAL AND WEST MINNESOTA  *****

CITY           SKY/WX    TMP DP  RH WIND       PRES   REMARKS
FOSSTON        MOCLDY    34  27  75 E9G18     29.83R
BEMIDJI        MOCLDY    33  27  81 E12       29.87F WCI  24
PARK RAPIDS    FAIR      33  22  63 E12       29.82F WCI  24
ELBOW LAKE     FAIR      38  34  87 SE21      29.72F
WADENA         MOCLDY    32  27  80 E10G16    29.80S WCI  24
DETROIT LAKES  FAIR      34  28  80 SE16G23   29.78S WCI  23
MOORHEAD       FAIR      37  30  75 E10       29.76F
FERGUS FALLS   FAIR      37  30  75 E16G29    29.72F
MORRIS MN      FAIR      39  34  81 E22       29.71F
STAPLES        FAIR      32  25  74 E9G16     29.81F WCI  24
$$
  *****  WEATHER ELSEWHERE ACROSS MINNESOTA  *****

CITY           SKY/WX    TMP DP  RH WIND       PRES   REMARKS
DULUTH         CLOUDY    31  27  85 E29G35    29.95F WCI  16
INTRNTL FALLS  LGT SNOW  32  28  85 E8        30.00S FOG     WCI  25
ELY            CLOUDY    28  25  86 E9G20     30.00F WCI  20
CLOQUET        FAIR      32  27  80 E13G26    29.93F WCI  22
WHEATON        FAIR      41  34  75 E16       29.71F
BRAINERD       FAIR      33  25  72 E9        29.86F
HIBBING        CLOUDY    30  25  81 E13       29.94F WCI  20
ALEXANDRIA     FAIR      35  31  85 E16G22    29.79F
SAINT CLOUD    FAIR      36  32  85 E8G17     29.83F
MINNEAPOLIS    FAIR      50  39  66 E3        29.84F
$$

  *****  WEATHER ACROSS SOUTH DAKOTA  *****

CITY           SKY/WX    TMP DP  RH WIND       PRES   REMARKS
SIOUX FALLS    FAIR      55  35  47 S17       29.73F
BROOKINGS      FAIR      54  33  45 S21G31    29.70
WATERTOWN      FAIR      51  34  52 S14       29.66F
HURON          FAIR      55  36  48 SE12      29.61F
SISSETON         N/A     41  38  89 E3        29.68F
ABERDEEN       FAIR      42  37  82 NW8       29.61F
MITCHELL       FAIR      56  36  47 S16       29.64F
PIERRE         LGT RAIN  42  37  82 NW22G30   29.57R
MOBRIDGE       LGT RAIN  38  33  82 N10       29.68R
RAPID CITY     FAIR      39  37  92 N3        29.58F
$$

  *****  SOME WEATHER IN NEARBY STATES *****

CITY           SKY/WX    TMP DP  RH WIND       PRES   REMARKS
GLASGOW MT     CLOUDY    32  31  96 E13       29.71F WCI  22
GREAT FALLS MT FAIR      39  35  86 W6        29.68F
CHEYENNE WY    FAIR      50  32  50 NW15G25   29.72S
SCOTTSBLUFF NE FAIR      46  37  71 NW5       29.60R
OMAHA NE       MOCLDY    54  36  50 S15       29.84F
DES MOINES IA  MOCLDY    50  33  52 S7        29.92F
DAVENPORT IA   FAIR      47  32  56 SE5       29.97F
CHICAGO IL     FAIR      42  37  82 NE5       30.01F
EAU CLAIRE WI  FAIR      44  38  79 SE14G20   29.93F
LA CROSSE WI   FAIR      51  42  71 E12       29.93F
$$

  *****  SOME NATIONAL WEATHER *****

CITY           SKY/WX    TMP DP  RH WIND       PRES   REMARKS
LA GUARDIA NY  MOCLDY    50  42  74 CALM      30.11R
RALEIGH NC     DRIZZLE   53  52  96 NE9       29.89F FOG
ATLANTA GA     DRIZZLE   53  52  96 NE12      29.75F FOG
NEW ORLEANS LA FAIR      54  50  86 W7        29.90F
OKLAHOMA CITY  FAIR      45  39  79 S7        29.92F
ALBUQUERQUE NM MOCLDY    60  31  33 S13       29.91S
SALT LAKE CITY FAIR      51  36  56 SE8       29.78F
LOS ANGELES CA FAIR      59  52  77 CALM      29.87F
BOISE ID       FAIR      50  41  71 SE6       29.73F
SEATTLE WA     CLOUDY    46  44  93 S9        29.79F
$$

*** WEATHER ACROSS MANITOBA...SASKATCHEWAN AND ONTARIO ***
                ***ONTARIO***

CITY           SKY/WX    TMP DP  RH WIND       PRES   REMARKS
GERALDTON      CLEAR     19  10  68 E5        30.18S WCI  13
THUNDER BAY    LGT SNOW  30  27  86 E13       30.14F WCI  20
SIOUX LOOKOUT  PTCLDY    25  10  54 E6        30.08F WCI  18
TORONTO        PTCLDY    43  36  75 N9        30.11R
BIG TROUT LK   CLEAR      0  -4  85 VRB2      30.31R
PICKLE LAKE    NOT AVBL
DRYDEN         PTCLDY    25  16  68 E9        30.05F WCI  15
KENORA         PTCLDY    28  12  50 E10       30.02F WCI  19
$$
                *** MANITOBA***

CITY           SKY/WX    TMP DP  RH WIND       PRES   REMARKS
BRANDON        CLOUDY    30  19  64 E16G22    29.93F WCI  19
DAUPHIN        PTCLDY    28  23  80 E6        30.00F WCI  22
ISLAND LAKE    NOT AVBL
PILOT MOUND      N/A     30  16  55 E15G21      N/A  WCI  19
THE PAS        MOCLDY    25   9  50 E8        30.12F WCI  16
THOMPSON       CLEAR      1  -9  60 NE3       30.26F
WINNIPEG       PTCLDY    30  16  55 E13       29.99F WCI  20
LYNN LAKE      CLEAR      3  -4  72 E7        30.21S WCI  -9
CHURCHILL      CLEAR    -13 -18  77 NW6       30.40S WCI -27
GILLAM         CLEAR     -6 -11  77 E3        30.34R
$$
                ***SASKATCHEWAN***

CITY           SKY/WX    TMP DP  RH WIND       PRES   REMARKS
ESTEVAN        LGT SNOW  30  21  69 SE21G29   29.84R WCI  17
KINDERSLEY     CLOUDY    32  30  93 SE12      29.73S WCI  23
LLOYDMINSTER   CLOUDY    30  30 100 SE14G21   29.78F WCI  20
PRINCE ALBERT  LGT SNOW  28  27  93 E15       29.93F WCI  17
REGINA         LGT SNOW  28  28 100 SE7       29.84S VSB 3/4 WCI  21
YORKTON        CLOUDY    32  19  59 E15G22    29.92F WCI  22
N. BATTLEFORD  CLOUDY    32  32 100 SE14      29.84F WCI  22
LA RONGE       CLOUDY    27  12  54 E8        30.02F WCI  18
SASKATOON      CLOUDY    32  28  86 E16       29.86F WCI  21
SWIFT CURRENT  CLOUDY    30  30 100 SE9       29.71F WCI  22
$$
NOTE: THESE ARE AUTOMATED STATIONS WITH LIMITED QUALITY CONTROL
      "FAIR" INDICATES FEW OR NO CLOUDS BELOW 12,000 FEET WITH NO
      SIGNIFICANT WEATHER AND/OR OBSTRUCTIONS TO VISIBILITY.
      SKY/WX - SKY CONDITION AND SIGNIFICANT WEATHER.
      TMP - AIR TEMPERATURE.    DP   - DEWPOINT TEMPERATURE.
      RH  - RELATIVE HUMIDITY.  PRES - PRESSURE.
      HX  - HEAT INDEX.         WCI  - WIND CHILL INDEX.
$




USA.gov is the U.S. government's official web portal to all federal, state and local government web resources and services.